This is the latest recevied weather packets stored in our database for station/object DM2KB-13. If no packets are shown the sender has not sent any weather packets the latest 10 day(s).
| Time | Temp. | Humidity | Pressure | Rain* | Wind** | Luminosity | Snow |
|---|---|---|---|---|---|---|---|
| 1777715451 | 23.33° C | 46% | 1017.8 hPa | 0 mm | - | 772 W/m² | - |
| 1777715151 | 23.33° C | 47% | 1018 hPa | 0 mm | - | 701 W/m² | - |
| 1777714851 | 22.78° C | 48% | 1018 hPa | 0 mm | - | 742 W/m² | - |
| 1777714550 | 22.78° C | 48% | 1018.1 hPa | 0 mm | - | 657 W/m² | - |
| 1777714250 | 22.78° C | 48% | 1018.1 hPa | 0 mm | - | 663 W/m² | - |
| 1777713950 | 22.78° C | 47% | 1018 hPa | 0 mm | - | 705 W/m² | - |
| 1777713649 | 22.78° C | 48% | 1018 hPa | 0 mm | - | 643 W/m² | - |
| 1777713349 | 22.22° C | 48% | 1018 hPa | 0 mm | - | 494 W/m² | - |
| 1777713049 | 22.22° C | 47% | 1018 hPa | 0 mm | - | 582 W/m² | - |
| 1777712749 | 22.22° C | 48% | 1018 hPa | 0 mm | - | 621 W/m² | - |
| 1777712448 | 21.67° C | 48% | 1018.1 hPa | 0 mm | - | 626 W/m² | - |
| 1777712148 | 21.11° C | 48% | 1018.1 hPa | 0 mm | - | 643 W/m² | - |
| 1777711848 | 21.11° C | 49% | 1018.1 hPa | 0 mm | - | 471 W/m² | - |
| 1777711547 | 21.11° C | 49% | 1018.1 hPa | 0 mm | - | 369 W/m² | - |
| 1777711247 | 21.11° C | 48% | 1018.1 hPa | 0 mm | - | 383 W/m² | - |
| 1777710947 | 21.11° C | 48% | 1018.1 hPa | 0 mm | - | 338 W/m² | - |
| 1777710647 | 21.67° C | 46% | 1018.2 hPa | 0 mm | - | 251 W/m² | - |
| 1777710346 | 21.67° C | 46% | 1018.1 hPa | 0 mm | - | 325 W/m² | - |
| 1777710046 | 21.67° C | 45% | 1018.1 hPa | 0 mm | - | 476 W/m² | - |
| 1777709746 | 21.11° C | 46% | 1018.1 hPa | 0 mm | - | 494 W/m² | - |
| 1777709445 | 21.11° C | 45% | 1018.1 hPa | 0 mm | - | 446 W/m² | - |
| 1777709145 | 20.56° C | 46% | 1018 hPa | 0 mm | - | 496 W/m² | - |
| 1777708845 | 20.56° C | 46% | 1018 hPa | 0 mm | - | 480 W/m² | - |
| 1777708545 | 20° C | 47% | 1018 hPa | 0 mm | - | 476 W/m² | - |
| 1777708244 | 19.44° C | 48% | 1018 hPa | 0 mm | - | 461 W/m² | - |
* Rain latest hour (hover to see other rain measurements)
** Current wind speed in m/s (hover to see current wind gust speed)